Regional Weather Roundup
Issued by NWS

Home | Current Version | Previous Version | Graphics & Text | Print | Product List | Glossary Off
Versions: 1 2 3 4 5 6 7 8 9 10 11 12 13 14 15 16 17 18 19 20 21 22 23 24 25 26 27 28 29 30 31 32 33 34 35 36 37 38 39 40 41 42 43 44 45 46 47 48 49 50

000
ASUS43 KLSX 280707
RWRMO

WEATHER SUMMARY FOR MISSOURI
NATIONAL WEATHER SERVICE SPRINGFIELD MO
100 AM CST SAT FEB 28 2015

NOTE: "FAIR" INDICATES FEW OR NO CLOUDS BELOW 12,000 FEET WITH NO
       SIGNIFICANT WEATHER AND/OR OBSTRUCTIONS TO VISIBILITY.
       CURRENT SKY AND/OR WEATHER CONDITIONS ARE NOT AVAILABLE FOR
       CHILLICOTHE AND FARMINGTON.

MOZ001>031-035>038-043-044-053-054-280800-
...NORTHERN AND WESTERN MISSOURI...

CITY           SKY/WX    TMP DP  RH WIND       PRES   REMARKS
KANSAS CTY INT MOCLDY    15   6  67 E9        30.53F WCI   3
KANSAS C DTWN  CLOUDY    17   5  59 E7        30.55F WCI   8
LEE`S SUMMIT   CLOUDY    16   6  65 E8        30.53F WCI   5
ST JOSEPH      CLOUDY    15   5  64 SE9       30.56F WCI   3
CHILLICOTHE      N/A     13   4  67 SE6       30.60S WCI   4
KIRKSVILLE     MOCLDY     7   0  73 SE6       30.59F WCI  -3

$$
MOZ066>068-077>081-088>096-101>105-280800-
...SOUTHWEST MISSOURI...

CITY           SKY/WX    TMP DP  RH WIND       PRES   REMARKS
SPRINGFIELD    CLOUDY    19  10  68 SE3       30.50S
JOPLIN         CLOUDY    19  11  70 E8        30.51F WCI   9

$$
MOZ032>034-039>042-045>050-055>058-069>072-280800-
...CENTRAL MISSOURI...

CITY           SKY/WX    TMP DP  RH WIND       PRES   REMARKS
COLUMBIA       CLOUDY    16   4  59 E7        30.58S WCI   6
JEFFERSON CITY CLOUDY    18   5  57 E8        30.61F WCI   8
ROLLA          CLOUDY    18   5  57 NE8       30.54R WCI   8
SEDALIA        FAIR      19   6  57 E8        30.56F WCI   9
WHITEMAN AFB   CLOUDY    18   8  65 E5        30.54F WCI  11
WARRENSBURG    CLOUDY    19   9  63 NE7       30.56S WCI  10
OSAGE BEACH    CLOUDY    19   5  53 NE7       30.55S WCI  10

$$
MOZ051-052-059>065-280800-
...EAST CENTRAL MISSOURI...

CITY           SKY/WX    TMP DP  RH WIND       PRES   REMARKS
ST LOUIS INTL  CLOUDY    15   2  56 E6        30.65S WCI   6
SPIRIT OF STL  CLOUDY    15   3  59 E6        30.64S WCI   6
ST CHARLES     CLOUDY    12   1  61 E5        30.66S WCI   4

$$
MOZ072>076-082>087-097>100-106>115-280800-
...SOUTH CENTRAL AND SOUTHEAST MISSOURI...

CITY           SKY/WX    TMP DP  RH WIND       PRES   REMARKS
CAPE GIRARDEAU MOCLDY    20  11  68 NE10      30.62R WCI   9
FARMINGTON     CLOUDY    18  10  73 E9        30.60S WCI   6
POPLAR BLUFF   CLOUDY    22  11  62 NE9       30.59S WCI  12
WEST PLAINS    CLOUDY    20  10  65 SE6       30.52R WCI  12

$$


USA.gov is the U.S. government's official web portal to all federal, state and local government web resources and services.